Location: Niagara
(43.2500°N, 79.0670°W)
Time: 03:08:57
(UTC-04:00)

Envisat - Pass Details

Date: 14 October 2017
Orbit: 764 x 766 km, 98.2° (Epoch: 19 October)

Event Time Altitude Azimuth Distance (km) Brightness Sun altitude
Exits shadow 20:20:00 37° 70° (ENE) 1,181 3.5 -20.0°
Maximum altitude 20:20:04 37° 68° (ENE) 1,180 3.5 -20.0°
Drops below altitude 10° 20:24:42 10° 3° (N) 2,311 5.5 -20.8°
Sets 20:27:09 0° 355° (N) 3,241 6.4 -21.3°
